Novato, CA

12:49 PM PDT on August 25, 2016 (GMT -0700)
Gnoss

Weather History for KDVO - October, 2012

Change the Weather History Date:

Saturday, October 20, 2012

  Actual Average (KAPC) Record (KAPC)
Temperature  
Mean Temperature 60 °F 58 °F  
Max Temperature 73 °F 73 °F 87 °F (2015)
Min Temperature 48 °F 42 °F 36 °F (2008)
Degree Days  
Heating Degree Days 4    
Month to date heating degree days  
Since 1 July heating degree days  
Cooling Degree Days 0    
Month to date cooling degree days  
Year to date cooling degree days  
Growing Degree Days 10 (Base 50)    
Moisture  
Dew Point 50 °F    
Average Humidity 82    
Maximum Humidity 100    
Minimum Humidity 43    
Precipitation  
Precipitation 0.00 in - 0.74 in (1970)
Month to date precipitation  
Year to date precipitation  
Sea Level Pressure  
Sea Level Pressure 29.86 in    
Wind  
Wind Speed 3 mph (SSW)    
Max Wind Speed 23 mph    
Max Gust Speed 30 mph    
Visibility 8 miles    
Events Fog    
T = Trace of Precipitation, MM = Missing Value Source: NWS Daily Summary

Daily Weather History Graph

Daily Weather History Graph

Search for Another Location

Airport or City:

Trip Planner

Search our weather history database for the weather conditions in past years. The results will help you decide how hot, cold, wet, or windy it might be!

Date:

Astronomy

Oct. 20, 2012 Rise Set
Actual Time 7:24 AM PDT 6:24 PM PDT
Civil Twilight 6:57 AM PDT 6:51 PM PDT
Nautical Twilight 6:26 AM PDT 7:22 PM PDT
Astronomical Twilight 5:56 AM PDT 7:52 PM PDT
Moon 1:02 PM PDT (10/20) 11:19 PM PDT (10/20)
Length of Visible Light 11h 53m
Length of Day
11h 00m
Waxing Crescent, 35% of the Moon is Illuminated
Oct 20
Waxing Crescent
Oct 21
First Quarter
Oct 29
Full
Nov 6
Last Quarter
Nov 13
New

Hourly Weather History & Observations

Time (PDT) Temp. Dew Point Humidity Pressure Visibility Wind Dir Wind Speed Gust Speed Precip Events Conditions
12:15 AM 51.8 °F 51.8 °F 100% 29.94 in 10.0 mi Calm Calm - N/A   Clear
12:35 AM 50.0 °F 50.0 °F 100% 29.93 in 10.0 mi Calm Calm - N/A   Clear
12:55 AM 51.8 °F 51.8 °F 100% 29.93 in 10.0 mi Calm Calm - N/A   Clear
1:15 AM 50.0 °F 50.0 °F 100% 29.92 in 9.0 mi Calm Calm - N/A   Clear
1:35 AM 50.0 °F 50.0 °F 100% 29.92 in 2.0 mi Calm Calm - N/A   Clear
1:55 AM 50.0 °F 50.0 °F 100% 29.92 in 10.0 mi Calm Calm - N/A   Clear
2:15 AM 48.2 °F 48.2 °F 100% 29.92 in 6.0 mi Calm Calm - N/A   Clear
2:35 AM 48.2 °F 48.2 °F 100% 29.93 in 8.0 mi North 3.5 mph - N/A   Clear
2:55 AM 50.0 °F 50.0 °F 100% 29.93 in 10.0 mi NNW 3.5 mph - N/A   Clear
3:15 AM 50.0 °F 50.0 °F 100% 29.92 in 10.0 mi Calm Calm - N/A   Clear
3:35 AM 50.0 °F 50.0 °F 100% 29.92 in 10.0 mi Calm Calm - N/A   Clear
3:55 AM 50.0 °F 50.0 °F 100% 29.91 in 10.0 mi Calm Calm - N/A   Clear
4:15 AM 50.0 °F 50.0 °F 100% 29.90 in 10.0 mi Calm Calm - N/A   Clear
4:35 AM 50.0 °F 50.0 °F 100% 29.89 in 8.0 mi Calm Calm - N/A   Clear
4:55 AM 50.0 °F 50.0 °F 100% 29.90 in 10.0 mi Calm Calm - N/A   Clear
5:15 AM 48.2 °F 48.2 °F 100% 29.90 in 7.0 mi SSW 3.5 mph - N/A   Clear
5:35 AM 48.2 °F 48.2 °F 100% 29.89 in 2.0 mi SE 3.5 mph - N/A   Clear
5:55 AM 50.0 °F 50.0 °F 100% 29.90 in 10.0 mi ENE 3.5 mph - N/A   Partly Cloudy
6:15 AM 48.2 °F 48.2 °F 100% 29.90 in 1.0 mi Calm Calm - N/A   Overcast
6:35 AM 48.2 °F 48.2 °F 100% 29.90 in 1.8 mi Calm Calm - N/A   Overcast
6:55 AM 48.2 °F 48.2 °F 100% 29.90 in 5.0 mi Calm Calm - N/A   Overcast
7:15 AM 51.8 °F 51.8 °F 100% 29.89 in 0.2 mi Calm Calm - N/A Fog Fog
7:35 AM 51.8 °F 51.8 °F 100% 29.89 in 0.2 mi Calm Calm - N/A Fog Fog
7:55 AM 51.8 °F 51.8 °F 100% 29.89 in 0.2 mi Calm Calm - N/A Fog Fog
8:15 AM 53.6 °F 53.6 °F 100% 29.90 in 0.2 mi Calm Calm - N/A Fog Fog
8:35 AM 53.6 °F 53.6 °F 100% 29.90 in 0.2 mi Calm Calm - N/A Fog Fog
9:15 AM 55.4 °F 55.4 °F 100% 29.91 in 6.0 mi Calm Calm - N/A   Overcast
9:55 AM 57.2 °F 57.2 °F 100% 29.91 in 10.0 mi Calm Calm - N/A   Overcast
10:15 AM 59.0 °F 59.0 °F 100% 29.91 in 10.0 mi Calm Calm - N/A   Overcast
10:35 AM 59.0 °F 57.2 °F 94% 29.90 in 10.0 mi Calm Calm - N/A   Unknown
10:55 AM 62.6 °F 57.2 °F 82% 29.90 in 10.0 mi South 3.5 mph - N/A   Unknown
11:15 AM 64.4 °F 57.2 °F 77% 29.89 in 10.0 mi SSW 3.5 mph - N/A   Unknown
11:55 AM 68.0 °F 57.2 °F 68% 29.89 in 10.0 mi South 5.8 mph - N/A   Unknown
12:15 PM 69.8 °F 55.4 °F 60% 29.88 in 10.0 mi South 6.9 mph - N/A   Unknown
12:35 PM 69.8 °F 55.4 °F 60% 29.87 in 10.0 mi SW 5.8 mph - N/A   Unknown
1:15 PM 71.6 °F 53.6 °F 53% 29.85 in 10.0 mi WSW 13.8 mph 18.4 mph N/A   Clear
1:35 PM 71.6 °F 53.6 °F 53% 29.84 in 10.0 mi SW 11.5 mph - N/A   Clear
2:15 PM 73.4 °F 50.0 °F 44% 29.83 in 10.0 mi WSW 12.7 mph - N/A   Clear
2:55 PM 71.6 °F 50.0 °F 46% 29.81 in 10.0 mi SW 17.3 mph 23.0 mph N/A   Clear
3:15 PM 71.6 °F 48.2 °F 43% 29.81 in 10.0 mi SW 18.4 mph - N/A   Clear
3:35 PM 71.6 °F 50.0 °F 46% 29.80 in 10.0 mi WSW 19.6 mph 24.2 mph N/A   Clear
3:55 PM 68.0 °F 48.2 °F 49% 29.80 in 10.0 mi WSW 23.0 mph 26.5 mph N/A   Clear
4:15 PM 66.2 °F 48.2 °F 52% 29.80 in 10.0 mi WSW 20.7 mph 29.9 mph N/A   Clear
4:35 PM 66.2 °F 48.2 °F 52% 29.79 in 10.0 mi WSW 20.7 mph 28.8 mph N/A   Clear
4:55 PM 64.4 °F 50.0 °F 59% 29.80 in 10.0 mi WSW 16.1 mph 20.7 mph N/A   Clear
5:15 PM 64.4 °F 48.2 °F 56% 29.80 in 10.0 mi SW 12.7 mph 20.7 mph N/A   Clear
5:35 PM 64.4 °F 46.4 °F 52% 29.80 in 10.0 mi Calm Calm - N/A   Clear
5:55 PM 62.6 °F 48.2 °F 59% 29.80 in 10.0 mi SW 8.1 mph - N/A   Clear
6:15 PM 60.8 °F 48.2 °F 63% 29.79 in 10.0 mi WSW 9.2 mph - N/A   Clear
6:35 PM 60.8 °F 48.2 °F 63% 29.79 in 10.0 mi SW 6.9 mph - N/A   Clear
6:55 PM 59.0 °F 46.4 °F 63% 29.79 in 10.0 mi SW 8.1 mph - N/A   Clear
7:15 PM 59.0 °F 48.2 °F 67% 29.79 in 10.0 mi SSW 6.9 mph - N/A   Clear
7:35 PM 57.2 °F 48.2 °F 72% 29.79 in 10.0 mi SSE 3.5 mph - N/A   Clear
7:55 PM 55.4 °F 48.2 °F 77% 29.80 in 10.0 mi SE 3.5 mph - N/A   Clear
8:15 PM 55.4 °F 48.2 °F 77% 29.81 in 10.0 mi ESE 6.9 mph - N/A   Clear
8:35 PM 55.4 °F 48.2 °F 77% 29.82 in 10.0 mi ESE 4.6 mph - N/A   Clear
8:55 PM 55.4 °F 48.2 °F 77% 29.82 in 10.0 mi SE 4.6 mph - N/A   Clear
9:35 PM 51.8 °F 46.4 °F 82% 29.82 in 10.0 mi East 9.2 mph - N/A   Unknown
9:55 PM 51.8 °F 46.4 °F 82% 29.83 in 10.0 mi Calm Calm - N/A   Unknown
10:35 PM 50.0 °F 46.4 °F 87% 29.84 in 10.0 mi Calm Calm - N/A   Unknown
10:55 PM 50.0 °F 46.4 °F 87% 29.85 in 10.0 mi Calm Calm - N/A   Unknown
11:15 PM 48.2 °F 46.4 °F 93% 29.85 in 10.0 mi Calm Calm - N/A   Unknown
11:35 PM 48.2 °F 46.4 °F 93% 29.85 in 10.0 mi Calm Calm - N/A   Unknown